CW2056 Weather Reports


time (UTC)temp
C
wind
direction
speed
KPH
gust
KPH
rain 1hr
cm
rain 24hr
cm
rain mn
cm
humidity
%
barometer
mb
20260505184502 2 73 4.8 11.3 0.13 0.00 1.70 94 1015.7
20260505184002 2 55 4.8 8.0 0.13 0.00 1.70 94 1015.7
20260505183503 2 47 6.4 8.0 0.18 0.00 1.68 93 1015.7
20260505182502 2 60 3.2 3.2 0.18 0.00 1.65 94 1015.7
20260505182002 2 89 3.2 4.8 0.18 0.00 1.65 93 1015.7
20260505181503 2 70 3.2 6.4 0.13 0.00 1.63 93 1015.5
20260505175503 2 44 3.2 6.4 0.13 0.00 1.57 93 1015.8
20260505175002 2 55 1.6 3.2 0.13 0.00 1.55 93 1015.7
20260505174502 2 48 3.2 4.8 0.13 0.00 1.55 94 1016.0
20260505174003 2 73 3.2 4.8 0.13 0.00 1.55 94 1015.8
20260505173501 2 83 4.8 4.8 0.05 0.00 1.52 94 1015.7
20260505173003 3 96 3.2 4.8 0.05 0.00 1.52 94 1015.8
20260505172502 2 70 3.2 4.8 0.05 0.00 1.52 94 1015.8
20260505172002 2 97 1.6 3.2 0.05 0.00 1.50 92 1016.2
20260505170502 2 96 3.2 4.8 0.13 0.00 1.50 92 1016.3
20260505170003 2 85 3.2 4.8 0.13 0.00 1.50 94 1016.2
20260505165502 2 86 3.2 3.2 0.13 0.00 1.47 95 1016.2
20260505165002 2 93 3.2 4.8 0.18 0.00 1.47 95 1016.3
20260505164502 2 115 1.6 4.8 0.23 0.00 1.45 94 1016.3
20260505164002 2 109 1.6 3.2 0.30 0.00 1.45 94 1016.1
20260505163503 1 62 3.2 4.8 0.23 0.00 1.42 94 1016.2
20260505162503 2 98 1.6 4.8 0.30 0.00 1.37 95 1016.3
20260505162004 2 72 3.2 3.2 0.30 0.00 1.35 95 1016.2
20260505161502 2 85 3.2 4.8 0.23 0.00 1.32 95 1016.2
20260505161002 1 83 3.2 4.8 0.18 0.00 1.30 95 1016.3
20260505153002 1 69 3.2 4.8 0.30 0.00 1.12 97 1016.4
20260505152502 1 66 3.2 3.2 0.30 0.00 1.07 97 1016.6
20260505152002 1 77 3.2 4.8 0.23 0.00 1.04 97 1016.3
20260505151502 1 76 3.2 4.8 0.23 0.00 1.04 97 1016.4
20260505151003 1 71 3.2 4.8 0.23 0.00 1.02 97 1016.6
20260505150502 1 75 3.2 4.8 0.30 0.00 0.99 97 1016.6
20260505140503 0 62 4.8 6.4 0.00 0.00 0.74 97 1016.7
20260505125003 0 35 6.4 6.4 0.13 0.00 0.69 96 1016.1
20260505124502 0 23 6.4 8.0 0.13 0.00 0.69 96 1016.0
20260505124003 0 38 6.4 8.0 0.18 0.00 0.66 96 1016.0
20260505123502 0 54 3.2 6.4 0.18 0.00 0.66 96 1015.7
20260505122502 0 62 4.8 6.4 0.18 0.00 0.64 96 1015.8
20260505122002 0 49 3.2 4.8 0.13 0.00 0.61 96 1015.7
20260505121502 0 39 4.8 6.4 0.13 0.00 0.61 96 1015.7
20260505121003 0 36 6.4 8.0 0.13 0.00 0.58 96 1015.7
20260505120503 0 29 3.2 6.4 0.18 0.00 0.58 96 1015.7
20260505120003 1 40 4.8 6.4 0.18 0.00 0.56 96 1015.7
20260505115502 0 36 3.2 6.4 0.13 0.00 0.56 96 1015.8
20260505115002 0 47 3.2 6.4 0.13 0.00 0.53 96 1015.7
20260505114502 0 55 3.2 6.4 0.13 0.00 0.53 96 1015.7
20260505114002 0 37 4.8 8.0 0.13 0.00 0.51 96 1015.7
20260505113502 0 7 3.2 8.0 0.13 0.00 0.51 96 1015.7
20260505113003 0 40 4.8 9.7 0.13 0.00 0.51 96 1015.7
20260505112502 0 40 1.6 6.4 0.13 0.00 0.48 96 1015.5
20260505112002 0 45 3.2 6.4 0.13 0.00 0.48 96 1015.7
20260505111002 0 36 4.8 6.4 0.13 0.00 0.46 96 1015.5
20260505102001 0 34 6.4 6.4 0.00 0.00 0.43 95 1015.3
20260505101503 0 15 4.8 9.7 0.00 0.00 0.43 95 1015.1
20260505101002 0 13 8.0 9.7 0.05 0.00 0.43 95 1015.1
20260505100502 0 12 8.0 12.9 0.13 0.00 0.43 95 1014.9
20260505100003 0 7 8.0 14.5 0.05 0.00 0.43 94 1015.2
20260505095502 0 20 12.9 12.9 0.05 0.00 0.43 94 1015.1
20260505095002 1 359 12.9 17.7 0.13 0.00 0.43 94 1015.1
20260505094502 1 0 9.7 16.1 0.13 0.00 0.41 94 1015.2
20260505093502 1 30 9.7 19.3 0.13 0.00 0.38 93 1015.2
20260505093003 2 24 12.9 24.1 0.13 0.00 0.38 93 1015.3
20260505091003 2 358 12.9 12.9 0.18 0.00 0.33 93 1015.1
20260505090503 2 28 9.7 16.1 0.18 0.00 0.33 92 1014.8
20260505090002 3 16 6.4 14.5 0.13 0.00 0.30 91 1014.9
20260505085502 3 22 8.0 16.1 0.18 0.00 0.28 93 1014.8
20260505085002 3 32 9.7 17.7 0.13 0.00 0.28 93 1014.9
20260505084502 3 14 11.3 16.1 0.05 0.00 0.25 93 1014.6
20260505083503 3 29 9.7 17.7 0.30 0.00 0.23 93 1014.7
20260505083002 3 20 8.0 12.9 0.30 0.00 0.23 93 1014.6
20260505082502 3 6 12.9 16.1 0.18 0.00 0.18 92 1014.2
20260505082002 4 23 9.7 20.9 0.05 0.00 0.15 92 1014.3
20260505081502 4 12 11.3 14.5 0.05 0.00 0.15 91 1014.3
20260505081002 4 358 9.7 16.1 0.00 0.00 0.15 91 1014.5
20260505080502 5 28 11.3 12.9 0.05 0.00 0.15 91 1014.5
20260505075502 5 41 9.7 12.9 0.00 0.00 0.13 91 1014.3
20260505075002 5 11 11.3 14.5 0.00 0.00 0.13 89 1014.3
20260505074502 5 31 6.4 11.3 0.05 0.00 0.13 90 1014.3
20260505074003 5 8 8.0 20.9 0.05 0.00 0.13 89 1014.1
20260505073502 5 11 8.0 14.5 0.05 0.00 0.13 89 1014.6
20260505073003 5 12 14.5 17.7 0.13 0.00 0.13 88 1014.5
20260505072502 5 19 11.3 14.5 0.18 0.00 0.10 89 1014.5
20260505071503 5 20 9.7 14.5 0.23 0.00 0.08 87 1014.3
20260505071003 5 5 8.0 16.1 0.05 0.00 0.05 87 1014.1
20260505070002 5 6 9.7 16.1 0.05 0.00 0.03 86 1014.3
20260505065002 5 14 16.1 24.1 0.05 0.00 0.03 85 1014.2
20260505064502 6 353 12.9 20.9 0.13 0.00 0.03 83 1014.2
20260505064002 6 9 16.1 22.5 0.05 0.00 0.00 83 1014.1
20260505063502 6 355 16.1 22.5 0.00 0.00 0.00 81 1014.2
20260505063003 6 2 17.7 24.1 0.00 0.00 0.00 81 1014.5
20260505062503 6 3 16.1 22.5 0.00 0.00 0.00 79 1014.1
20260505062002 6 353 24.1 27.4 0.00 0.00 0.00 78 1014.1
20260505061502 6 25 17.7 29.0 0.00 0.00 0.00 78 1014.2
20260505061002 6 6 19.3 25.7 0.00 0.00 0.00 78 1014.2
20260505060503 6 355 17.7 22.5 0.00 0.00 0.00 79 1014.2
20260505060002 6 3 12.9 24.1 0.00 0.00 0.23 79 1014.0
20260505054505 6 354 16.1 24.1 0.00 0.00 0.23 80 1013.9
20260505053502 8 0 14.5 30.6 0.00 0.00 0.23 79 1013.3
20260505053002 9 352 19.3 30.6 0.00 0.00 0.23 78 1013.2
20260505052502 10 1 9.7 12.9 0.00 0.00 0.23 85 1013.1
20260505052002 9 4 11.3 11.3 0.00 0.00 0.23 86 1012.8
20260505051502 9 13 9.7 9.7 0.00 0.00 0.23 85 1012.8
20260505050502 9 23 4.8 6.4 0.00 0.00 0.23 83 1012.7
20260505041502 9 63 3.2 3.2 0.00 0.00 0.23 77 1012.5
20260505041002 9 66 3.2 3.2 0.00 0.00 0.23 76 1012.2
20260505040502 9 69 1.6 3.2 0.00 0.00 0.23 75 1012.4
20260505040002 9 52 0.0 3.2 0.00 0.00 0.23 75 1012.2
20260505035502 9 59 3.2 3.2 0.00 0.00 0.23 75 1012.1
20260505035002 9 45 3.2 3.2 0.00 0.00 0.23 75 1012.2
20260505034503 9 63 1.6 3.2 0.00 0.00 0.23 76 1012.4
20260505034002 10 86 3.2 3.2 0.00 0.00 0.23 76 1012.4
20260505033502 10 135 0.0 0.0 0.00 0.00 0.23 75 1012.4
20260505033003 10 218 0.0 0.0 0.00 0.00 0.23 74 1012.0
20260505032502 10 257 0.0 1.6 0.00 0.00 0.23 74 1012.4
20260505032002 9 67 1.6 3.2 0.00 0.00 0.23 76 1012.0
20260505031002 10 67 1.6 3.2 0.00 0.00 0.23 75 1011.9
20260505030503 10 97 3.2 3.2 0.00 0.00 0.23 73 1012.0
20260505030002 10 55 0.0 0.0 0.00 0.00 0.23 72 1012.0
20260505025502 9 55 0.0 1.6 0.00 0.00 0.23 77 1011.9
20260505025002 10 71 3.2 3.2 0.00 0.00 0.23 79 1011.7
20260505024503 10 145 0.0 1.6 0.00 0.00 0.23 77 1011.7
20260505024003 10 169 0.0 3.2 0.00 0.00 0.23 76 1011.4
20260505023502 10 157 0.0 1.6 0.00 0.00 0.23 74 1011.5
20260505023002 9 107 1.6 3.2 0.00 0.00 0.23 81 1011.2
20260505022502 10 100 0.0 1.6 0.00 0.00 0.23 76 1011.3
20260505022003 10 147 0.0 1.6 0.00 0.00 0.23 76 1011.3
20260505021503 10 55 0.0 0.0 0.00 0.00 0.23 77 1011.4
20260505021002 10 141 0.0 0.0 0.00 0.00 0.23 77 1011.3
20260505015502 10 86 1.6 3.2 0.00 0.00 0.23 77 1011.4
20260505015002 10 68 1.6 3.2 0.00 0.00 0.23 76 1011.7
20260505014502 10 84 3.2 3.2 0.00 0.00 0.23 70 1011.4
20260505014003 10 87 3.2 3.2 0.00 0.00 0.23 76 1011.3
20260505013502 10 56 0.0 3.2 0.00 0.00 0.23 71 1011.3
20260505012502 10 245 3.2 6.4 0.00 0.00 0.23 68 1011.2
20260505012003 10 245 11.3 12.9 0.00 0.00 0.23 69 1011.1
20260505011503 10 234 6.4 14.5 0.00 0.00 0.23 70 1011.2
20260505011002 10 308 6.4 12.9 0.00 0.00 0.23 70 1011.2
20260505010502 10 267 4.8 12.9 0.00 0.00 0.23 71 1011.2
20260505005502 10 226 9.7 11.3 0.00 0.00 0.23 71 1011.1
20260505005002 10 229 6.4 12.9 0.00 0.00 0.23 71 1010.9
20260505004502 10 244 6.4 9.7 0.00 0.00 0.23 72 1011.1
20260505004002 10 247 12.9 17.7 0.00 0.00 0.23 71 1011.2
20260505003002 10 267 1.6 9.7 0.13 0.00 0.23 73 1011.1
20260505002002 10 251 0.0 6.4 0.43 0.00 0.23 74 1011.4
20260505001502 10 232 3.2 6.4 0.43 0.00 0.18 74 1011.8
20260505001003 11 329 3.2 6.4 0.36 0.00 0.15 70 1011.7
20260505000502 11 287 6.4 9.7 0.18 0.00 0.10 64 1011.7
20260505000002 12 304 3.2 3.2 0.13 0.00 0.10 61 1011.3
20260504235502 13 274 3.2 6.4 0.05 0.00 0.08 54 1011.4
20260504235002 13 89 3.2 6.4 0.05 0.00 0.08 55 1011.1
20260504234502 12 242 9.7 12.9 0.05 0.00 0.05 55 1011.2
20260504234002 13 245 12.9 14.5 0.05 0.00 0.05 54 1010.9
20260504233503 15 305 22.5 24.1 0.00 0.00 0.05 46 1010.8
20260504233002 15 325 4.8 9.7 0.00 0.00 0.05 40 1010.5
20260504232502 15 353 3.2 6.4 0.00 0.00 0.05 40 1010.3
20260504232002 15 328 4.8 8.0 0.00 0.00 0.05 39 1010.1
20260504231503 15 344 3.2 8.0 0.00 0.00 0.05 39 1010.3
20260504231002 16 1 8.0 16.1 0.00 0.00 0.05 40 1009.9
20260504230503 16 354 8.0 14.5 0.00 0.00 0.05 39 1009.9
20260504230002 16 325 6.4 8.0 0.00 0.00 0.05 39 1009.9
20260504225502 16 345 11.3 12.9 0.00 0.00 0.05 39 1009.6
20260504225002 16 347 11.3 14.5 0.00 0.00 0.05 38 1009.9
20260504224502 16 352 14.5 17.7 0.00 0.00 0.05 38 1009.7
20260504224002 16 349 12.9 17.7 0.00 0.00 0.05 37 1009.4
20260504223502 16 343 12.9 22.5 0.00 0.00 0.05 37 1009.3
20260504223002 16 357 11.3 19.3 0.00 0.00 0.05 37 1009.7
20260504222502 16 1 17.7 17.7 0.00 0.00 0.05 37 1009.6
20260504222002 16 357 8.0 17.7 0.00 0.00 0.05 40 1009.6
20260504221502 16 339 12.9 19.3 0.00 0.00 0.05 37 1009.6
20260504220502 16 350 14.5 19.3 0.00 0.00 0.05 39 1009.7
20260504220002 16 343 12.9 22.5 0.00 0.00 0.05 39 1009.9
20260504215502 17 307 11.3 19.3 0.00 0.00 0.05 40 1010.0
20260504215002 17 3 11.3 22.5 0.00 0.00 0.05 41 1010.0
20260504214502 16 353 17.7 27.4 0.00 0.00 0.05 41 1010.3
20260504213502 15 357 22.5 27.4 0.00 0.00 0.05 42 1010.4
20260504213002 15 11 17.7 19.3 0.00 0.00 0.05 45 1010.5
20260504212502 15 354 12.9 14.5 0.00 0.00 0.05 48 1010.3
20260504212002 15 14 12.9 16.1 0.00 0.00 0.05 50 1010.5
20260504210503 13 38 3.2 6.4 0.00 0.00 0.05 50 1010.3
20260504210003 13 286 1.6 3.2 0.00 0.00 0.05 59 1010.5
20260504205505 13 13 4.8 8.0 0.05 0.00 0.05 56 1010.5
20260504205002 12 68 3.2 9.7 0.13 0.00 0.05 59 1010.8
20260504204502 13 2 8.0 14.5 0.00 0.00 0.03 54 1011.3
20260504204003 14 336 12.9 24.1 0.00 0.00 0.03 50 1011.3
20260504203002 14 355 4.8 9.7 0.00 0.00 0.03 45 1011.5
20260504202502 14 7 4.8 8.0 0.00 0.00 0.03 47 1011.4
20260504201502 14 10 6.4 14.5 0.00 0.00 0.03 46 1011.4
20260504201003 13 99 3.2 4.8 0.00 0.00 0.03 52 1011.1
20260504200502 13 46 3.2 6.4 0.00 0.00 0.03 53 1011.1
20260504195502 13 27 6.4 9.7 0.13 0.00 0.03 56 1010.9
20260504195002 13 48 4.8 17.7 0.18 0.00 0.03 59 1011.1
20260504194002 16 5 20.9 32.2 0.00 0.00 0.00 35 1010.5
20260504193502 16 7 19.3 37.0 0.00 0.00 0.00 32 1010.6
20260504193002 16 9 19.3 29.0 0.00 0.00 0.00 31 1010.6
20260504192502 18 355 29.0 33.8 0.00 0.00 0.00 27 1010.5
20260504192003 19 354 8.0 8.0 0.00 0.00 0.00 24 1009.9
20260504191502 19 36 6.4 6.4 0.00 0.00 0.00 25 1010.3
20260504191002 19 12 8.0 12.9 0.00 0.00 0.00 24 1009.8
20260504190003 19 20 14.5 19.3 0.00 0.00 0.00 23 1009.7
20260504185503 20 345 9.7 20.9 0.00 0.00 0.00 25 1009.6
20260504185002 20 315 6.4 17.7 0.00 0.00 0.00 22 1009.2